Location: Trois-Rivi�res
(46.3500°N, 72.5500°W)
Time: 07:47:33
(UTC-04:00)

ISS - Visible Passes

Search period start: 23 October 2017 00:00
Search period end: 02 November 2017 00:00
Orbit: 400 x 408 km, 51.6° (Epoch: 24 October)

Date Brightness Start Highest point End Pass type
(mag) Time Alt. Az. Time Alt. Az. Time Alt. Az.
29 Oct -0.9 06:23:23 10° S 06:25:36 17° SE 06:27:49 10° E visible
31 Oct -2.3 06:13:58 10° SSW 06:16:57 35° SE 06:19:58 10° ENE visible
01 Nov -1.6 05:23:50 19° SSE 05:24:40 20° SE 05:27:11 10° E visible
01 Nov -3.8 06:57:37 10° WSW 07:00:52 71° NNW 07:04:07 10° ENE visible
